Voltar ao catálogo

ONEWEB-0274

AtivoComunicaçõesPO
NORAD 48992·PAYLOAD·🇬🇧 United Kingdom

Lançado Jul 1, 2021 de Vostochny Cosmodrome

Loading…

Próximas Passagens (próximas 24 horas)

TLE

AtualizadoSource: CelesTrak SupGP

Época: Sep 14, 2026, 11:34 UTC

1 48992C 21060AB  26257.48245787 -.00002368  00000+0 -62006-2 0  2571
2 48992  87.9150 211.0486 0002367  81.8219  20.2176 13.16599855    14

Acompanhe ONEWEB-0274 em tempo real com AllMySat

Download on the App Store